Regional Weather Roundup
Issued by NWS Charleston, WV

Home | Current Version | Previous Version | Graphics & Text | Print | Product List | Glossary On
Versions: 1 2 3 4 5 6 7 8 9 10 11 12 13 14 15 16 17 18 19 20 21 22 23 24 25 26 27 28 29 30 31 32 33 34 35 36 37 38 39 40 41 42 43 44 45 46 47 48 49 50
000
ASUS41 KRLX 191910
RWRRLX
West Virginia Regional Weather Roundup
National Weather Service Charleston WV
200 PM EST FRI DEC 19 2014

Note: "fair" indicates few or no clouds below 12,000 feet with no
significant weather and/or obstructions to visibility.

WVZ003-192000-
Northern Panhandle of West Virginia

CITY           SKY/WX    TMP DP  RH WIND       PRES   REMARKS
WHEELING       CLOUDY    29  24  82 W7        30.20S
$$

WVZ009-192000-
Northwest West Virginia

CITY           SKY/WX    TMP DP  RH WIND       PRES   REMARKS
PARKERSBURG    CLOUDY    31  23  72 CALM      30.26F
$$

WVZ006-192000-
Western West Virginia

CITY           SKY/WX    TMP DP  RH WIND       PRES   REMARKS
HUNTINGTON     CLOUDY    31  22  69 CALM      30.24F
$$

WVZ015-192000-
West Central West Virginia

CITY           SKY/WX    TMP DP  RH WIND       PRES   REMARKS
CHARLESTON     CLOUDY    31  21  66 CALM      30.24F
$$

WVZ022-031-192000-
North Central West Virginia

CITY           SKY/WX    TMP DP  RH WIND       PRES   REMARKS
CLARKSBURG     CLOUDY    30  23  75 SW8       30.21R
MORGANTOWN     CLOUDY    30  21  69 VRB5      30.20S
$$

WVZ025-035-042-045-192000-
Southern West Virginia

CITY           SKY/WX    TMP DP  RH WIND       PRES   REMARKS
BECKLEY        MOSUNNY   32  21  64 W6        30.14S
LOGAN          CLOUDY    30  23  74 CALM      30.19F
BLUEFIELD      MOSUNNY   36  23  59 NW8       30.12S
LEWISBURG      MOSUNNY   36  23  59 W6        30.12S
$$

WVZ047-192000-
Northern Mountains of West Virginia

CITY           SKY/WX    TMP DP  RH WIND       PRES   REMARKS
ELKINS         CLOUDY    27  21  78 NW6       30.17R
$$

WVZ052-192000-
Eastern Panhandle of West Virginia

CITY           SKY/WX    TMP DP  RH WIND       PRES   REMARKS
MARTINSBURG    PTSUNNY   38  20  48 NW13      30.13F
PETERSBURG     CLOUDY    35  21  56 NW6       30.18R
$$


USA.gov is the U.S. government's official web portal to all federal, state and local government web resources and services.